EW8556 Weather Reports


time (UTC)temp
F
wind
direction
speed
knots
gust
knots
rain 1hr
in
rain 24hr
in
rain mn
in
humidity
%
barometer
mb
20260504130115 57 202 4.3 7.8 0.00 0.00 0.00 67 1013.9
20260504120117 52 200 3.5 8.7 0.00 0.00 0.00 76 1014.1
20260504110612 46 210 3.5 5.2 0.00 0.00 0.00 81 1014.2
20260504110113 46 207 1.7 4.3 0.00 0.00 0.00 82 1014.3
20260504100612 44 196 0.9 3.5 0.00 0.00 0.00 81 1014.4
20260504100418 44 204 1.7 3.5 0.00 0.00 0.00 81 1014.4
20260504081607 46 251 1.7 4.3 0.00 0.00 0.00 71 1014.3
20260504081106 46 241 1.7 4.3 0.00 0.00 0.00 71 1014.3
20260504080604 46 213 1.7 4.3 0.00 0.00 0.00 70 1014.3
20260504080104 47 240 1.7 4.3 0.00 0.00 0.00 70 1014.3
20260504045531 47 282 0.9 3.5 0.00 0.00 0.00 54 1014.3
20260504045033 47 252 1.7 3.5 0.00 0.00 0.00 55 1014.3
20260504044531 47 243 1.7 3.5 0.00 0.00 0.00 55 1014.3
20260504044033 47 248 0.9 2.6 0.00 0.00 0.00 56 1014.2
20260504043529 47 247 0.9 2.6 0.00 0.00 0.00 54 1014.3
20260504043028 48 245 0.0 1.7 0.00 0.00 0.00 54 1014.2
20260504042529 48 254 0.0 2.6 0.00 0.00 0.00 54 1014.0
20260504042028 48 227 0.9 4.3 0.00 0.00 0.00 54 1014.0
20260504041523 48 247 1.7 4.3 0.00 0.00 0.00 54 1014.0
20260504041024 48 240 1.7 3.5 0.00 0.00 0.00 54 1014.0
20260504040506 48 285 0.9 2.6 0.00 0.00 0.00 54 1013.9
20260504040005 48 250 0.0 4.3 0.00 0.00 0.00 53 1014.0
20260504035505 48 251 0.9 4.3 0.00 0.00 0.00 53 1013.9
20260504035005 48 252 0.9 2.6 0.00 0.00 0.00 53 1013.9
20260504034832 48 240 0.9 2.6 0.00 0.00 0.00 53 1013.7
20260504034824 48 235 0.9 4.3 0.00 0.00 0.00 53 1013.7
20260504034710 48 248 0.9 2.6 0.00 0.00 0.00 53 1013.7
20260504033002 48 243 1.7 4.3 0.00 0.00 0.00 53 1013.7
20260504032501 48 244 0.9 2.6 0.00 0.00 0.00 54 1013.7
20260504032003 48 248 0.9 2.6 0.00 0.00 0.00 53 1013.6
20260504031810 48 282 0.9 2.6 0.00 0.00 0.00 53 1013.6
20260504031317 48 250 0.0 2.6 0.00 0.00 0.00 54 1013.6
20260504030502 49 248 0.9 2.6 0.00 0.00 0.00 53 1013.6
20260504030001 49 243 0.0 0.0 0.00 0.00 0.00 53 1013.6
20260504025501 49 243 0.0 2.6 0.00 0.00 0.00 52 1013.6
20260504025001 49 250 0.0 2.6 0.00 0.00 0.00 52 1013.6
20260504024502 49 251 1.7 2.6 0.00 0.00 0.00 51 1013.6
20260504024328 49 274 0.0 2.6 0.00 0.00 0.00 52 1013.6
20260504023502 49 230 1.7 2.6 0.00 0.00 0.00 52 1013.7
20260504023323 49 221 1.7 3.5 0.00 0.00 0.00 50 1013.7
20260504022811 50 272 1.7 3.5 0.00 0.00 0.00 51 1013.7
20260504022001 50 279 0.9 2.6 0.00 0.00 0.00 51 1013.6
20260504021500 50 271 0.9 3.5 0.00 0.00 0.00 51 1013.7
20260504021001 50 230 2.6 3.5 0.00 0.00 0.00 50 1013.7
20260504020459 49 269 0.0 0.0 0.00 0.00 0.00 51 1013.7
20260504020132 49 276 0.0 2.6 0.00 0.00 0.00 51 1013.6
20260504020100 49 269 0.0 2.6 0.00 0.00 0.00 51 1013.6
20260504014957 50 248 0.9 2.6 0.00 0.00 0.00 50 1013.6
20260504014457 50 244 0.9 2.6 0.00 0.00 0.00 50 1013.5
20260504013958 50 282 0.0 1.7 0.00 0.00 0.00 50 1013.5
20260504013458 50 252 0.0 1.7 0.00 0.00 0.00 50 1013.5
20260504012957 50 245 0.9 1.7 0.00 0.00 0.00 50 1013.5
20260504012458 51 250 0.9 2.6 0.00 0.00 0.00 49 1013.4
20260504012141 51 266 0.9 3.5 0.00 0.00 0.00 47 1013.2
20260504012054 51 244 0.0 2.6 0.00 0.00 0.00 48 1013.3
20260504011320 51 224 1.7 3.5 0.00 0.00 0.00 47 1013.2
20260504010457 52 250 1.7 4.3 0.00 0.00 0.00 47 1013.2
20260504005957 52 298 1.7 4.3 0.00 0.00 0.00 46 1013.0
20260504005456 52 271 0.9 3.5 0.00 0.00 0.00 46 1013.0
20260504004956 52 271 0.9 3.5 0.00 0.00 0.00 45 1013.0
20260504004818 53 272 0.9 3.5 0.00 0.00 0.00 45 1013.0
20260504003957 53 276 0.0 2.6 0.00 0.00 0.00 45 1012.9
20260504003455 53 250 0.9 2.6 0.00 0.00 0.00 44 1012.8
20260504003317 54 272 0.9 2.6 0.00 0.00 0.00 44 1012.8
20260504002814 54 272 1.7 3.5 0.00 0.00 0.00 44 1012.6
20260504001956 55 264 0.0 4.3 0.00 0.00 0.00 42 1012.5
20260504001455 55 295 1.7 4.3 0.00 0.00 0.00 41 1012.5
20260504000956 55 276 1.7 3.5 0.00 0.00 0.00 41 1012.5
20260504000454 56 274 1.7 2.6 0.00 0.00 0.00 41 1012.5
20260504000139 56 255 0.9 3.5 0.00 0.00 0.00 39 1012.4
20260504000100 56 259 1.7 2.6 0.00 0.00 0.00 39 1012.5
20260503234955 57 282 1.7 4.3 0.00 0.00 0.00 39 1012.4
20260503234455 57 279 1.7 4.3 0.00 0.00 0.00 38 1012.4
20260503233955 57 234 2.6 4.3 0.00 0.00 0.00 38 1012.3
20260503233746 57 276 1.7 4.3 0.00 0.00 0.00 38 1012.2
20260503233318 58 292 0.9 4.3 0.00 0.00 0.00 37 1012.2
20260503232454 58 272 1.7 3.5 0.00 0.00 0.00 36 1012.3
20260503231954 58 257 1.7 3.5 0.00 0.00 0.00 36 1012.2
20260503231454 58 247 1.7 3.5 0.00 0.00 0.00 36 1012.1
20260503230954 58 288 1.7 8.7 0.00 0.00 0.00 36 1012.2
20260503230454 58 261 0.9 8.7 0.00 0.00 0.00 36 1012.2
20260503230311 59 312 0.9 8.7 0.00 0.00 0.00 37 1012.1
20260503225453 59 292 4.3 12.2 0.00 0.00 0.00 36 1012.1
20260503224952 59 306 1.7 12.2 0.00 0.00 0.00 34 1012.1
20260503224453 59 220 4.3 10.4 0.00 0.00 0.00 35 1012.1
20260503223952 59 244 3.5 7.8 0.00 0.00 0.00 33 1012.1
20260503223453 59 324 2.6 8.7 0.00 0.00 0.00 34 1012.1
20260503222953 59 244 2.6 8.7 0.00 0.00 0.00 34 1012.0
20260503222453 60 255 0.9 5.2 0.00 0.00 0.00 36 1012.1
20260503221953 60 323 2.6 7.8 0.00 0.00 0.00 33 1012.1
20260503221452 60 290 2.6 7.8 0.00 0.00 0.00 33 1012.0
20260503220953 0 193 2.6 3.5 0.00 0.00 0.00 1012.1
20260503220452 0 296 4.3 6.1 0.00 0.00 0.00 1012.1
20260503215950 60 296 4.3 6.1 0.00 0.00 0.00 35 1012.1
20260503215451 60 212 1.7 4.3 0.00 0.00 0.00 35 1012.1
20260503214951 61 244 1.7 7.8 0.00 0.00 0.00 34 1012.1
20260503214450 61 290 2.6 8.7 0.00 0.00 0.00 32 1012.1
20260503213952 61 282 3.5 9.6 0.00 0.00 0.00 31 1012.1
20260503213450 61 278 5.2 9.6 0.00 0.00 0.00 31 1012.1
20260503212950 61 206 3.5 8.7 0.00 0.00 0.00 32 1012.0
20260503212449 61 158 1.7 8.7 0.00 0.00 0.00 31 1012.0
20260503211951 61 255 3.5 8.7 0.00 0.00 0.00 33 1011.9
20260503211450 61 213 1.7 8.7 0.00 0.00 0.00 33 1012.0
20260503211307 60 72 1.7 9.6 0.00 0.00 0.00 34 1012.0
20260503210450 60 272 3.5 11.3 0.00 0.00 0.00 33 1012.0
20260503205951 61 245 5.2 12.2 0.00 0.00 0.00 32 1012.1
20260503205451 61 286 2.6 12.2 0.00 0.00 0.00 32 1012.0
20260503204950 61 257 2.6 12.2 0.00 0.00 0.00 33 1012.1
20260503204451 61 27 2.6 11.3 0.00 0.00 0.00 34 1012.0
20260503204301 60 204 1.7 6.1 0.00 0.00 0.00 35 1012.1
20260503203451 60 345 2.6 11.3 0.00 0.00 0.00 33 1012.0
20260503202950 60 244 2.6 11.3 0.00 0.00 0.00 34 1012.1
20260503202450 60 166 0.9 5.2 0.00 0.00 0.00 34 1012.1
20260503201949 60 295 1.7 13.0 0.00 0.00 0.00 34 1012.2
20260503201450 60 286 3.5 13.0 0.00 0.00 0.00 34 1012.3
20260503200949 60 303 3.5 12.2 0.00 0.00 0.00 33 1012.2
20260503200638 60 25 2.6 9.6 0.00 0.00 0.00 36 1012.4
20260503200557 60 293 5.2 10.4 0.00 0.00 0.00 33 1012.2
20260503195449 61 219 4.3 9.6 0.00 0.00 0.00 35 1012.5
20260503194950 61 250 2.6 13.0 0.00 0.00 0.00 35 1012.4
20260503194450 61 235 3.5 13.9 0.00 0.00 0.00 37 1012.3
20260503193950 60 255 3.5 13.9 0.00 0.00 0.00 33 1012.4
20260503193449 61 209 1.7 3.5 0.00 0.00 0.00 34 1012.5
20260503192949 61 209 1.7 11.3 0.00 0.00 0.00 34 1012.6
20260503192448 61 279 3.5 11.3 0.00 0.00 0.00 36 1012.6
20260503192308 60 258 0.9 8.7 0.00 0.00 0.00 36 1012.6
20260503191449 60 283 3.5 8.7 0.00 0.00 0.00 36 1012.6
20260503190949 60 265 3.5 5.2 0.00 0.00 0.00 35 1012.7
20260503190805 60 265 2.6 4.3 0.00 0.00 0.00 33 1012.7
20260503185947 60 245 1.7 6.1 0.00 0.00 0.00 35 1012.7
20260503185802 59 255 3.5 6.1 0.00 0.00 0.00 35 1012.7
20260503184945 59 202 1.7 8.7 0.00 0.00 0.00 35 1012.7
20260503184759 59 180 1.7 8.7 0.00 0.00 0.00 36 1012.8
20260503183945 60 357 1.7 6.1 0.00 0.00 0.00 37 1012.9
20260503183445 59 279 2.6 7.8 0.00 0.00 0.00 36 1013.0
20260503182946 59 87 2.6 7.8 0.00 0.00 0.00 35 1012.9
20260503182806 58 289 2.6 10.4 0.00 0.00 0.00 39 1012.9
20260503181944 58 250 5.2 10.4 0.00 0.00 0.00 36 1013.0
20260503181445 57 274 3.5 9.6 0.00 0.00 0.00 37 1013.1
20260503180946 57 264 3.5 11.3 0.00 0.00 0.00 34 1013.1
20260503180447 58 223 5.2 11.3 0.00 0.00 0.00 34 1013.1
20260503175947 58 264 1.7 5.2 0.00 0.00 0.00 34 1013.1
20260503175445 58 345 1.7 9.6 0.00 0.00 0.00 34 1013.1
20260503175310 58 314 5.2 9.6 0.00 0.00 0.00 38 1013.2
20260503174446 58 230 2.6 7.8 0.00 0.00 0.00 37 1013.1
20260503174315 57 334 0.9 6.1 0.00 0.00 0.00 36 1013.2
20260503173444 57 288 1.7 6.1 0.00 0.00 0.00 39 1013.3
20260503172944 56 317 3.5 9.6 0.00 0.00 0.00 35 1013.3
20260503172809 56 102 1.7 9.6 0.00 0.00 0.00 38 1013.2
20260503171932 57 68 2.6 8.7 0.00 0.00 0.00 37 1013.4
20260503171431 57 219 3.5 12.2 0.00 0.00 0.00 36 1013.4
20260503170932 56 65 3.5 12.2 0.00 0.00 0.00 38 1013.4
20260503170431 56 193 1.7 7.8 0.00 0.00 0.00 41 1013.4
20260503150433 51 41 3.5 6.1 0.00 0.00 0.00 49 1014.1
20260503140235 51 103 0.9 5.2 0.00 0.00 0.00 50 1014.0